Location: Newark
(48.3831°N, 4.1956°E)
Time: 21:32:49
(UTC+00:00)

Envisat - Pass Details

Date: 16 November 2019
Orbit: 764 x 766 km, 98.1° (Epoch: 06 December)

Event Time Altitude Azimuth Distance (km) Brightness Sun altitude
Rises 17:27:28 0° 161° (SSE) 3,221 6.2 -13.8°
Reaches altitude 10° 17:29:46 10° 161° (SSE) 2,298 5.4 -14.2°
Maximum altitude 17:34:50 82° 74° (ENE) 780 2.9 -15.0°
Drops below altitude 10° 17:39:56 10° 348° (NNW) 2,314 5.5 -15.9°
Sets 17:42:15 0° 347° (NNW) 3,245 6.3 -16.3°
